Weather History for Flint, MI

Change the Weather History Date:

Sunday, June 23, 2013

  Actual Average Record
Temperature  
Mean Temperature 81 °F 69 °F  
Max Temperature 91 °F 80 °F 98 °F (1923)
Min Temperature 71 °F 57 °F 44 °F (1963)
Degree Days  
Heating Degree Days 0 1  
Month to date heating degree days 41 59  
Since 1 June heating degree days 41 59  
Since 1 July heating degree days 6462 6946  
Cooling Degree Days 16 5  
Month to date cooling degree days 94 74  
Year to date cooling degree days 173 106  
Since 1 June cooling degree days 94 74  
Growing Degree Days 31 (Base 50)    
Moisture  
Dew Point 67 °F    
Average Humidity 64    
Maximum Humidity 90    
Minimum Humidity 38    
Precipitation  
Precipitation 0.00 in 0.10 in 0.99 in (1994)
Month to date precipitation 2.38 2.38  
Year to date precipitation 19.14 13.37  
Snow  
Snow 0.00 in 0.00 in 0.00 in ()
Month to date snowfall 0.0 0.0  
Since 1 June snowfall 0.0 0.0  
Since 1 July snowfall 43.8 47.4  
Snow Depth 0.00 in    
Sea Level Pressure  
Sea Level Pressure 30.01 in    
Wind  
Wind Speed 8 mph (SW)    
Max Wind Speed 18 mph    
Max Gust Speed 55 mph    
Visibility 8 miles    
Events      
T = Trace of Precipitation, MM = Missing Value Source: NWS Daily Summary

Daily Weather History Graph

Daily Weather History Graph

Search for Another Location

Airport:

Trip Planner

Search our weather history database for the weather conditions in past years. The results will help you decide how hot, cold, wet, or windy it might be!

Date:

Astronomy

Jun. 23, 2013 Rise Set
Actual Time 5:56 AM EDT 9:17 PM EDT
Civil Twilight 5:21 AM EDT 9:53 PM EDT
Nautical Twilight 4:35 AM EDT 10:39 PM EDT
Astronomical Twilight 3:38 AM EDT 11:36 PM EDT
Moon 9:26 PM EDT (6/23) 6:14 AM EDT (6/23)
Length of Visible Light 16h 32m
Length of Day
15h 21m
Full, 100% of the Moon is Illuminated
Jun 23
Full
Jun 30
Last Quarter
Jul 8
New
Jul 15
First Quarter
Jul 22
Full

Hourly Weather History & Observations

Time (EDT) Temp. Heat Index Dew Point Humidity Pressure Visibility Wind Dir Wind Speed Gust Speed Precip Events Conditions
12:53 AM 75.0 °F - 70.0 °F 84% 30.03 in 6.0 mi SSW 5.8 mph - N/A   Haze
1:53 AM 75.0 °F - 70.0 °F 84% 30.03 in 6.0 mi SSW 4.6 mph - N/A   Haze
2:53 AM 73.0 °F - 69.1 °F 87% 30.01 in 6.0 mi SW 3.5 mph - N/A   Partly Cloudy
3:53 AM 73.0 °F - 69.1 °F 87% 30.01 in 5.0 mi SSW 4.6 mph - N/A   Clear
4:53 AM 73.0 °F - 69.1 °F 87% 30.03 in 5.0 mi WSW 5.8 mph - N/A   Clear
5:53 AM 72.0 °F - 68.0 °F 87% 30.02 in 5.0 mi South 4.6 mph - N/A   Clear
6:53 AM 73.0 °F - 68.0 °F 84% 30.04 in 4.0 mi SSW 4.6 mph - N/A   Haze
7:53 AM 75.9 °F - 69.1 °F 79% 30.03 in 5.0 mi South 4.6 mph - N/A   Haze
8:53 AM 78.1 °F - 68.0 °F 71% 30.04 in 8.0 mi SSW 9.2 mph - N/A   Clear
9:53 AM 80.1 °F 82.3 °F 66.9 °F 64% 30.02 in 10.0 mi SSW 10.4 mph 19.6 mph N/A   Clear
10:53 AM 82.0 °F 84.1 °F 66.0 °F 58% 30.02 in 10.0 mi SW 11.5 mph - N/A   Clear
11:53 AM 84.0 °F 85.4 °F 64.0 °F 51% 30.03 in 10.0 mi SSW 11.5 mph 19.6 mph N/A   Clear
12:53 PM 86.0 °F 88.8 °F 66.9 °F 53% 30.03 in 10.0 mi SSW 12.7 mph - N/A   Clear
1:53 PM 88.0 °F 90.3 °F 66.0 °F 48% 30.02 in 10.0 mi SW 13.8 mph 19.6 mph N/A   Clear
2:53 PM 90.0 °F 92.4 °F 66.0 °F 45% 30.00 in 10.0 mi SSW 13.8 mph 19.6 mph N/A   Clear
3:53 PM 91.0 °F 91.9 °F 63.0 °F 39% 29.99 in 10.0 mi SW 15.0 mph 21.9 mph N/A   Clear
4:53 PM 91.0 °F 92.6 °F 64.0 °F 41% 29.97 in 10.0 mi WSW 10.4 mph 20.7 mph N/A   Clear
5:53 PM 90.0 °F 91.3 °F 64.0 °F 42% 29.97 in 10.0 mi WSW 10.4 mph 18.4 mph N/A   Clear
6:53 PM 89.1 °F 91.0 °F 64.9 °F 45% 29.96 in 10.0 mi WSW 9.2 mph - N/A   Clear
7:53 PM 87.1 °F 88.9 °F 64.9 °F 48% 29.96 in 10.0 mi WSW 5.8 mph - N/A   Clear
8:53 PM 84.9 °F 87.1 °F 66.0 °F 53% 29.96 in 10.0 mi SSW 4.6 mph - N/A   Clear
9:53 PM 82.0 °F 84.1 °F 66.0 °F 58% 29.98 in 10.0 mi South 5.8 mph - N/A   Clear
10:53 PM 81.0 °F 83.0 °F 66.0 °F 60% 29.99 in 10.0 mi SSW 8.1 mph - N/A   Clear
11:53 PM 79.0 °F - 64.9 °F 62% 30.00 in 10.0 mi WSW 4.6 mph - N/A   Clear